Regional Weather Roundup
Issued by NWS

Home | Current Version | Previous Version | Text Only | Print | Product List | Glossary Off
Versions: 1 2 3 4 5 6 7 8 9 10 11 12 13 14 15 16 17 18 19 20 21 22 23 24 25 26 27 28 29 30 31 32 33 34 35 36 37 38 39 40 41 42 43 44 45 46 47 48 49 50

648
ASUS45 KABQ 250801
RWRNM
NEW MEXICO REGIONAL WEATHER ROUNDUP
NATIONAL WEATHER SERVICE ALBUQUERQUE NM
200 AM MDT MON SEP 25 2017

NOTE: "FAIR" MEANS FEW OR NO CLOUDS BELOW 12,000 FEET AGL WITH NO
       SIGNIFICANT WEATHER OR OBSTRUCTIONS TO VISION.

      THIS PRODUCT IS RELEASED AS TWO VERSIONS.  ONE VERSION NEAR
      THE TOP OF THE HOUR CONTAINING PRELIMINARY DATA FROM ALBUQUERQUE
      AND OTHER STATIONS.  A FINAL VERSION WITH ADDITIONAL DATA IS
      ISSUED ABOUT 10 MINUTES AFTER THE HOUR.

NMZ501-503-504-510>518-250900-
NORTHWEST PLATEAU/NORTHCENTRAL MOUNTAINS

CITY           SKY/WX    TMP DP  RH WIND       PRES   REMARKS
FARMINGTON     FAIR      38  19  46 NE5       30.03R WCI  34
LOS ALAMOS     FAIR      51  22  32 CALM      30.03S
SANTA FE       FAIR      50  26  39 N12       29.98R
TAOS           CLOUDY    43  32  65 VRB6      30.06R
ANGEL FIRE     FAIR      30  27  88 CALM      30.11R

$$
NMZ402-403-502-505>509-250900-
WESTCENTRAL MOUNTAINS/SOUTHWEST MOUNTAINS

CITY           SKY/WX    TMP DP  RH WIND       PRES   REMARKS
GALLUP         FAIR      32   7  35 CALM      30.06F
GRANTS         FAIR      40  12  31 N5        30.06S
SILVER CITY    FAIR      50  32  50 N8        29.94S

$$
NMZ407-409-411-412-250900-
SOUTHERN DESERTS

CITY           SKY/WX    TMP DP  RH WIND       PRES   REMARKS
DEMING         FAIR      55  34  45 SW8       29.89R
LAS CRUCES     FAIR      64  39  40 CALM      29.88S
HOLLOMAN AFB   FAIR      64  42  45 SW8       29.86F
ALAMOGORDO     FAIR      64  41  42 W3        29.87S
T OR C         CLOUDY    65  24  21 NW8       29.90S

$$
NMZ519>523-250900-
CENTRAL VALLEYS/CENTRAL HIGHLANDS

CITY           SKY/WX    TMP DP  RH WIND       PRES   REMARKS
ALBUQUERQUE    FAIR      58  23  26 N7        29.97R
MORIARTY ARPT  FAIR      47  33  59 S6        29.99S
CLINES CORNERS FAIR      49  29  46 SW12      30.02S
BELEN          CLOUDY    57  19  23 N7        29.97S
SOCORRO        FAIR      60  20  21 CALM      29.94S

$$
NMZ524>526-539-540-250900-
SOUTHCENTRAL MOUNTAINS

CITY           SKY/WX    TMP DP  RH WIND       PRES   REMARKS
RUIDOSO        FAIR      52  36  54 MISG      30.05S

$$
NMZ527>531-250900-
NORTHEAST HIGHLANDS/NORTHEAST PLAINS

CITY           SKY/WX    TMP DP  RH WIND       PRES   REMARKS
LAS VEGAS      FAIR      46  40  79 NE3       30.01R
RATON          NOT AVBL
CLAYTON        TSTM      57  55  93 W7        29.96R

$$
NMZ532>537-250900-
EASTCENTRAL PLAINS

CITY           SKY/WX    TMP DP  RH WIND       PRES   REMARKS
SANTA ROSA     FAIR      64  59  85 S16G25    29.91S
TUCUMCARI      TSTM      62  57  83 W12       29.91R
CANNON AFB     NOT AVBL
CLOVIS AIRPORT CLOUDY    66  63  90 S17G26    29.94S

$$
NMZ028-029-538-250900-
SOUTHEAST PLAINS

CITY           SKY/WX    TMP DP  RH WIND       PRES   REMARKS
ROSWELL        CLOUDY    70  66  87 S9        29.88R
ARTESIA        CLOUDY    68  68 100 S13       29.86F
CARLSBAD       CLOUDY    69  69 100 SE9       29.84F
HOBBS          CLOUDY    66  66 100 SE13      29.90S


$$




USA.gov is the U.S. government's official web portal to all federal, state and local government web resources and services.